When you browse on this site, cookies collect data to enhance your experience and personalize the content and advertising you see.
Visit our Privacy Policy to learn more. By continuing to use the site, you agree to this use of cookies and data.
  • In Slovakia
  • List of Countries
  • For 7 days
  • Water Temperature
  • Weather Map
  • Weather Widgets
  • user-avatar
    Login

    Hourly Weather Natitingou

    Today, 22 August, Thursday

    Time Temperature Precipitation Wind Pressure Humidity
    00:00 +23°C° 0 mm 1 mps 718 mmHg 95%
    01:00 +23°C° 0 mm 1 mps 718 mmHg 95%
    02:00 +23°C° 0 mm 1 mps 717 mmHg 95%
    03:00 +23°C° 0 mm 1 mps 717 mmHg 95%
    04:00 +22°C° 1.1 mm 1 mps 717 mmHg 95%
    05:00 +22°C° 1.1 mm 1 mps 718 mmHg 96%
    06:00 +22°C° 1.1 mm 1 mps 718 mmHg 96%
    07:00 +23°C° 0.5 mm 2 mps 718 mmHg 96%
    08:00 +22°C° 0.5 mm 3 mps 719 mmHg 96%
    09:00 +22°C° 0.5 mm 3 mps 719 mmHg 95%
    10:00 +23°C° 0.5 mm 4 mps 719 mmHg 94%
    11:00 +23°C° 0.5 mm 4 mps 719 mmHg 92%
    12:00 +25°C° 0.5 mm 4 mps 719 mmHg 91%
    13:00 +25°C° 0.3 mm 4 mps 718 mmHg 90%
    14:00 +25°C° 0.3 mm 3 mps 717 mmHg 88%
    15:00 +26°C° 0.3 mm 3 mps 717 mmHg 87%
    16:00 +25°C° 0.1 mm 3 mps 717 mmHg 90%
    17:00 +24°C° 0.1 mm 2 mps 717 mmHg 92%
    18:00 +24°C° 0.1 mm 2 mps 717 mmHg 94%
    19:00 +24°C° 0 mm 2 mps 717 mmHg 95%
    20:00 +23°C° 0 mm 2 mps 718 mmHg 96%
    21:00 +23°C° 0 mm 2 mps 718 mmHg 96%
    22:00 +23°C° 0.5 mm 2 mps 718 mmHg 96%
    23:00 +23°C° 0.5 mm 2 mps 718 mmHg 96%

    Tomorrow, 23 August, Friday

    Time Temperature Precipitation Wind Pressure Humidity
    00:00 +23°C° 0.5 mm 1 mps 718 mmHg 97%
    01:00 +23°C° 0.8 mm 1 mps 718 mmHg 97%
    02:00 +23°C° 0.8 mm 1 mps 717 mmHg 97%
    03:00 +23°C° 0.8 mm 1 mps 717 mmHg 97%
    04:00 +23°C° 1.3 mm 2 mps 717 mmHg 97%
    05:00 +23°C° 1.3 mm 2 mps 717 mmHg 96%
    06:00 +23°C° 1.3 mm 2 mps 718 mmHg 95%
    07:00 +24°C° 0.3 mm 3 mps 718 mmHg 93%
    08:00 +25°C° 0.3 mm 3 mps 719 mmHg 91%
    09:00 +25°C° 0.3 mm 4 mps 719 mmHg 88%
    10:00 +26°C° 1.6 mm 4 mps 719 mmHg 87%
    11:00 +27°C° 1.6 mm 4 mps 718 mmHg 87%
    12:00 +27°C° 1.6 mm 4 mps 718 mmHg 86%
    13:00 +27°C° 1.9 mm 4 mps 718 mmHg 86%
    14:00 +27°C° 1.9 mm 4 mps 717 mmHg 87%
    15:00 +27°C° 1.9 mm 4 mps 716 mmHg 87%
    16:00 +26°C° 1.2 mm 4 mps 716 mmHg 89%
    17:00 +25°C° 1.2 mm 3 mps 717 mmHg 91%
    18:00 +24°C° 1.2 mm 3 mps 717 mmHg 93%
    19:00 +24°C° 0.4 mm 3 mps 717 mmHg 94%
    20:00 +24°C° 0.4 mm 3 mps 718 mmHg 94%
    21:00 +24°C° 0.4 mm 3 mps 719 mmHg 94%
    22:00 +22°C° 0.6 mm 3 mps 719 mmHg 95%
    23:00 +22°C° 0.6 mm 3 mps 719 mmHg 96%

    Day after tomorrow, 24 August, Saturday

    Time Temperature Precipitation Wind Pressure Humidity
    00:00 +22°C° 0.6 mm 4 mps 719 mmHg 97%
    01:00 +22°C° 0.5 mm 3 mps 719 mmHg 97%
    02:00 +21°C° 0.5 mm 3 mps 718 mmHg 97%
    03:00 +21°C° 0.5 mm 3 mps 718 mmHg 98%
    04:00 +21°C° 1 mm 3 mps 718 mmHg 98%
    05:00 +21°C° 1 mm 2 mps 718 mmHg 97%
    06:00 +21°C° 1 mm 2 mps 719 mmHg 97%
    07:00 +21°C° 0.4 mm 3 mps 719 mmHg 96%
    08:00 +22°C° 0.4 mm 3 mps 719 mmHg 95%
    09:00 +22°C° 0.4 mm 3 mps 720 mmHg 95%
    10:00 +22°C° 0.4 mm 3 mps 720 mmHg 94%
    11:00 +22°C° 0.4 mm 3 mps 719 mmHg 93%
    12:00 +23°C° 0.4 mm 4 mps 719 mmHg 92%
    13:00 +24°C° 0.1 mm 3 mps 719 mmHg 91%
    14:00 +25°C° 0.1 mm 3 mps 718 mmHg 89%
    15:00 +25°C° 0.1 mm 3 mps 718 mmHg 87%
    16:00 +24°C° 0 mm 3 mps 718 mmHg 90%
    17:00 +24°C° 0 mm 2 mps 718 mmHg 92%
    18:00 +23°C° 0 mm 1 mps 718 mmHg 95%
    19:00 +23°C° 0 mm 2 mps 719 mmHg 95%
    20:00 +23°C° 0 mm 2 mps 719 mmHg 95%
    21:00 +23°C° 0 mm 2 mps 720 mmHg 94%
    22:00 +23°C° 0.1 mm 2 mps 720 mmHg 95%
    23:00 +23°C° 0.1 mm 2 mps 720 mmHg 95%

    25 August, Sunday

    Time Temperature Precipitation Wind Pressure Humidity
    00:00 +23°C° 0.1 mm 2 mps 720 mmHg 95%
    01:00 +23°C° 0.1 mm 2 mps 719 mmHg 95%
    02:00 +22°C° 0.1 mm 1 mps 719 mmHg 95%
    03:00 +22°C° 0.1 mm 1 mps 718 mmHg 96%
    04:00 +22°C° 0.1 mm 1 mps 719 mmHg 96%
    05:00 +22°C° 0.1 mm 1 mps 719 mmHg 96%
    06:00 +22°C° 0.1 mm 1 mps 719 mmHg 96%
    07:00 +23°C° 0.1 mm 2 mps 719 mmHg 94%
    08:00 +22°C° 0.1 mm 3 mps 720 mmHg 93%
    09:00 +23°C° 0.1 mm 4 mps 720 mmHg 91%
    10:00 +24°C° 0.2 mm 3 mps 720 mmHg 91%
    11:00 +24°C° 0.2 mm 3 mps 719 mmHg 90%
    12:00 +24°C° 0.2 mm 3 mps 719 mmHg 90%
    13:00 +24°C° 0 mm 3 mps 719 mmHg 89%
    14:00 +24°C° 0 mm 3 mps 718 mmHg 88%
    15:00 +24°C° 0 mm 3 mps 717 mmHg 88%
    16:00 +24°C° 0 mm 2 mps 718 mmHg 89%
    17:00 +24°C° 0 mm 2 mps 718 mmHg 90%
    18:00 +23°C° 0 mm 1 mps 718 mmHg 91%
    19:00 +23°C° 0 mm 1 mps 718 mmHg 92%
    20:00 +23°C° 0 mm 2 mps 719 mmHg 93%
    21:00 +23°C° 0 mm 2 mps 719 mmHg 94%
    22:00 +23°C° 0 mm 2 mps 719 mmHg 95%
    23:00 +23°C° 0 mm 2 mps 719 mmHg 95%

    26 August, Monday

    Time Temperature Precipitation Wind Pressure Humidity
    00:00 +23°C° 0 mm 2 mps 719 mmHg 96%
    01:00 +21°C° 0 mm 3 mps 718 mmHg 96%
    02:00 +21°C° 0 mm 3 mps 718 mmHg 96%
    03:00 +21°C° 0 mm 3 mps 718 mmHg 95%
    04:00 +21°C° 0 mm 3 mps 718 mmHg 95%
    05:00 +21°C° 0 mm 3 mps 718 mmHg 95%
    06:00 +21°C° 0 mm 3 mps 719 mmHg 95%
    07:00 +22°C° 0 mm 3 mps 719 mmHg 90%
    08:00 +23°C° 0 mm 4 mps 720 mmHg 85%
    09:00 +25°C° 0 mm 5 mps 720 mmHg 79%
    10:00 +26°C° 0.2 mm 5 mps 720 mmHg 80%
    11:00 +26°C° 0.2 mm 5 mps 719 mmHg 80%
    12:00 +26°C° 0.2 mm 5 mps 719 mmHg 80%
    13:00 +26°C° 0.2 mm 5 mps 718 mmHg 78%
    14:00 +26°C° 0.2 mm 5 mps 718 mmHg 77%
    15:00 +27°C° 0.2 mm 5 mps 717 mmHg 76%
    16:00 +26°C° 0 mm 4 mps 717 mmHg 81%
    17:00 +24°C° 0 mm 3 mps 717 mmHg 86%
    18:00 +23°C° 0 mm 2 mps 717 mmHg 90%
    19:00 +23°C° 0 mm 2 mps 718 mmHg 92%
    20:00 +23°C° 0 mm 2 mps 718 mmHg 94%
    21:00 +21°C° 0 mm 2 mps 719 mmHg 96%
    22:00 +21°C° 0 mm 2 mps 719 mmHg 96%
    23:00 +21°C° 0 mm 2 mps 719 mmHg 97%

    27 August, Tuesday

    Time Temperature Precipitation Wind Pressure Humidity
    00:00 +21°C° 0 mm 2 mps 719 mmHg 97%
    01:00 +21°C° 0 mm 2 mps 718 mmHg 97%
    02:00 +21°C° 0 mm 2 mps 718 mmHg 96%
    03:00 +21°C° 0 mm 2 mps 718 mmHg 96%
    04:00 +22°C° 0 mm 1 mps 718 mmHg 96%
    05:00 +22°C° 0 mm 1 mps 718 mmHg 96%
    06:00 +22°C° 0 mm 1 mps 718 mmHg 95%
    07:00 +23°C° 0 mm 2 mps 719 mmHg 90%
    08:00 +25°C° 0 mm 3 mps 720 mmHg 84%
    09:00 +26°C° 0 mm 3 mps 720 mmHg 78%
    10:00 +27°C° 0.9 mm 3 mps 720 mmHg 79%
    11:00 +27°C° 0.9 mm 3 mps 719 mmHg 80%
    12:00 +27°C° 0.9 mm 3 mps 719 mmHg 80%
    13:00 +27°C° 1.7 mm 3 mps 718 mmHg 81%
    14:00 +27°C° 1.7 mm 3 mps 718 mmHg 83%
    15:00 +27°C° 1.7 mm 3 mps 717 mmHg 84%
    16:00 +26°C° 0.2 mm 3 mps 717 mmHg 86%
    17:00 +25°C° 0.2 mm 2 mps 717 mmHg 89%
    18:00 +25°C° 0.2 mm 2 mps 717 mmHg 92%
    19:00 +24°C° 0.5 mm 2 mps 718 mmHg 92%
    20:00 +24°C° 0.5 mm 2 mps 718 mmHg 92%
    21:00 +24°C° 0.5 mm 2 mps 719 mmHg 92%
    22:00 +24°C° 0.1 mm 2 mps 719 mmHg 93%
    23:00 +23°C° 0.1 mm 2 mps 719 mmHg 94%
    Show more